Weather History for Lone Rock, WI

Change the Weather History Date:

Friday, November 22, 2013

  Actual Average Record
Temperature  
Mean Temperature 30 °F -  
Max Temperature 36 °F 41 °F 62 °F (2012)
Min Temperature 23 °F 25 °F 5 °F (2000)
Degree Days  
Heating Degree Days 35    
Moisture  
Dew Point 22 °F    
Average Humidity 72    
Maximum Humidity 87    
Minimum Humidity 44    
Precipitation  
Precipitation 0.01 in - - ()
Sea Level Pressure  
Sea Level Pressure 30.44 in    
Wind  
Wind Speed 10 mph (NW)    
Max Wind Speed 16 mph    
Max Gust Speed 22 mph    
Visibility 8 miles    
Events Snow    
Averages and records for this station are not official NWS values.
T = Trace of Precipitation, MM = Missing Value Source: NWS Daily Summary

Daily Weather History Graph

Daily Weather History Graph

Search for Another Location

Airport:

Trip Planner

Search our weather history database for the weather conditions in past years. The results will help you decide how hot, cold, wet, or windy it might be!

Date:

Astronomy

Nov. 22, 2013 Rise Set
Actual Time 7:02 AM CST 4:30 PM CST
Civil Twilight 6:31 AM CST 5:02 PM CST
Nautical Twilight 5:56 AM CST 5:37 PM CST
Astronomical Twilight 5:22 AM CST 6:10 PM CST
Moon 9:05 PM CST 10:44 AM CST
Length of Visible Light 10h 30m
Length of Day
9h 28m
Waning Gibbous, 78% of the Moon is Illuminated
Nov 22
Waning Gibbous
Nov 25
Last Quarter
Dec 2
New
Dec 9
First Quarter
Dec 17
Full

Hourly Weather History & Observations

Time (CST) Temp. Windchill Dew Point Humidity Pressure Visibility Wind Dir Wind Speed Gust Speed Precip Events Conditions
12:56 AM 35.1 °F 27.9 °F 30.0 °F 82% 30.32 in 10.0 mi NNW 9.2 mph - 0.00 in   Overcast
1:35 AM 33.8 °F 26.4 °F 30.2 °F 87% 30.34 in 3.0 mi NNW 9.2 mph - 0.00 in Snow Light Snow
1:52 AM 33.8 °F 23.5 °F 28.4 °F 81% 30.34 in 8.0 mi NNW 16.1 mph - 0.01 in   Overcast
1:56 AM 34.0 °F 24.6 °F 28.0 °F 79% 30.35 in 9.0 mi NNW 13.8 mph - 0.01 in Snow Light Snow
2:56 AM 32.0 °F 22.1 °F 28.0 °F 85% 30.38 in 3.0 mi NNW 13.8 mph 20.7 mph 0.00 in Snow Light Snow
3:01 AM 32.0 °F 23.0 °F 26.6 °F 80% 30.37 in 2.5 mi NNW 11.5 mph 20.7 mph 0.00 in Snow Light Snow
3:17 AM 32.0 °F 22.5 °F 26.6 °F 80% 30.37 in 5.0 mi NNW 12.7 mph - 0.00 in Snow Light Snow
3:49 AM 30.2 °F 19.8 °F 26.6 °F 86% 30.38 in 4.0 mi North 13.8 mph 19.6 mph 0.00 in Snow Light Snow
3:56 AM 30.9 °F 20.7 °F 26.1 °F 82% 30.38 in 4.0 mi North 13.8 mph 20.7 mph 0.00 in Snow Light Snow
4:21 AM 30.2 °F 21.9 °F 26.6 °F 86% 30.38 in 5.0 mi North 9.2 mph 18.4 mph 0.00 in Snow Light Snow
4:56 AM 30.9 °F 21.7 °F 25.0 °F 79% 30.40 in 10.0 mi NNW 11.5 mph - 0.00 in   Overcast
5:03 AM 30.2 °F 21.3 °F 24.8 °F 80% 30.40 in 10.0 mi North 10.4 mph - N/A   Overcast
5:43 AM 30.2 °F 21.3 °F 24.8 °F 80% 30.42 in 3.0 mi NNW 10.4 mph 18.4 mph 0.00 in Snow Light Snow
5:56 AM 30.0 °F 21.7 °F 25.0 °F 82% 30.43 in 5.0 mi NNW 9.2 mph 17.3 mph 0.00 in Snow Light Snow
6:56 AM 30.0 °F 21.1 °F 24.1 °F 79% 30.46 in 10.0 mi NNW 10.4 mph 18.4 mph 0.00 in   Overcast
7:48 AM 30.2 °F 21.3 °F 24.8 °F 80% 30.48 in 10.0 mi NNW 10.4 mph - N/A   Overcast
7:56 AM 30.0 °F 20.5 °F 23.0 °F 75% 30.50 in 10.0 mi NNW 11.5 mph 21.9 mph N/A   Overcast
8:36 AM 30.2 °F 24.3 °F 23.0 °F 75% 30.49 in 10.0 mi NNW 5.8 mph - N/A   Scattered Clouds
8:56 AM 30.9 °F 24.3 °F 23.0 °F 72% 30.51 in 10.0 mi North 6.9 mph - N/A   Clear
9:56 AM 32.0 °F 24.2 °F 23.0 °F 69% 30.51 in 10.0 mi NW 9.2 mph - N/A   Partly Cloudy
10:56 AM 34.0 °F 31.0 °F 23.0 °F 64% 30.50 in 10.0 mi Variable 3.5 mph - N/A   Partly Cloudy
11:56 AM 32.0 °F 25.6 °F 21.9 °F 66% 30.50 in 10.0 mi West 6.9 mph - N/A   Clear
12:56 PM 35.1 °F 26.9 °F 21.0 °F 57% 30.51 in 10.0 mi WNW 11.5 mph - N/A   Clear
1:56 PM 36.0 °F 28.5 °F 18.0 °F 48% 30.51 in 10.0 mi NW 10.4 mph - N/A   Clear
2:56 PM 36.0 °F 29.6 °F 16.0 °F 44% 30.51 in 10.0 mi WNW 8.1 mph - N/A   Clear
3:56 PM 35.1 °F 28.6 °F 15.1 °F 44% 30.50 in 10.0 mi West 8.1 mph - N/A   Clear
4:56 PM 32.0 °F 25.6 °F 17.1 °F 54% 30.48 in 10.0 mi West 6.9 mph - N/A   Clear
5:56 PM 30.0 °F - 18.0 °F 61% 30.49 in 10.0 mi Calm Calm - N/A   Clear
6:56 PM 28.0 °F - 16.0 °F 61% 30.48 in 10.0 mi Calm Calm - N/A   Clear
7:56 PM 27.0 °F 19.5 °F 16.0 °F 63% 30.48 in 10.0 mi West 6.9 mph - N/A   Clear
8:56 PM 26.1 °F 20.5 °F 16.0 °F 66% 30.47 in 10.0 mi West 4.6 mph - N/A   Clear
9:56 PM 25.0 °F 18.1 °F 15.1 °F 66% 30.46 in 10.0 mi West 5.8 mph - N/A   Clear
10:56 PM 24.1 °F 15.2 °F 15.1 °F 69% 30.46 in 10.0 mi West 8.1 mph - N/A   Clear
11:56 PM 23.0 °F 14.7 °F 15.1 °F 72% 30.46 in 10.0 mi West 6.9 mph - N/A   Clear